Location: Hurstbourne Priors
(51.2000°N, 1.3667°W)
Time: 22:12:23
(UTC+00:00)

Transit 4A - Pass Details

Date: 24 April 2021
Orbit: 871 x 974 km, 66.8° (Epoch: 16 May)

Event Time Altitude Azimuth Distance (km) Brightness Sun altitude
Rises 03:21:06 0° 303° (WNW) 3,570 10.8 -12.9°
Reaches altitude 10° 03:24:33 10° 322° (NW) 2,606 10.3 -12.5°
Maximum altitude 03:28:35 18° 4° (N) 2,064 10.3 -12.0°
Drops below altitude 10° 03:32:33 10° 46° (NE) 2,562 11.8 -11.5°
Sets 03:35:54 0° 66° (ENE) 3,486 12.7 -11.1°
